TimeCDT,TemperatureF,Dew PointF,Humidity,Sea Level PressureIn,VisibilityMPH,Wind Direction,Wind SpeedMPH,Gust SpeedMPH,PrecipitationIn,Events,Conditions,WindDirDegrees,DateUTC
12:55 AM,54.0,50.0,86,30.08,10.0,NW,11.5,-,N/A,,Clear,310,2013-09-12 05:55:00
1:13 AM,53.6,50.0,88,30.08,10.0,NW,11.5,-,N/A,,Scattered Clouds,310,2013-09-12 06:13:00
1:26 AM,53.6,51.8,94,30.08,10.0,NW,10.4,-,N/A,,Mostly Cloudy,320,2013-09-12 06:26:00
1:55 AM,54.0,50.0,86,30.08,10.0,NNW,13.8,18.4,N/A,,Mostly Cloudy,330,2013-09-12 06:55:00
2:03 AM,53.6,50.0,88,30.08,10.0,NNW,12.7,19.6,N/A,,Mostly Cloudy,330,2013-09-12 07:03:00
2:55 AM,54.0,50.0,86,30.09,10.0,NNW,6.9,-,N/A,,Mostly Cloudy,330,2013-09-12 07:55:00
3:32 AM,53.6,50.0,88,30.09,10.0,NW,5.8,-,N/A,,Scattered Clouds,320,2013-09-12 08:32:00
3:55 AM,53.1,50.0,89,30.09,10.0,NW,5.8,-,N/A,,Mostly Cloudy,320,2013-09-12 08:55:00
4:55 AM,55.0,51.1,86,30.10,10.0,NNW,8.1,-,N/A,,Mostly Cloudy,340,2013-09-12 09:55:00
5:55 AM,54.0,51.1,90,30.13,10.0,NNW,9.2,-,N/A,,Overcast,340,2013-09-12 10:55:00
6:55 AM,55.0,51.1,86,30.14,10.0,NNW,6.9,-,N/A,,Overcast,330,2013-09-12 11:55:00
7:17 AM,53.6,50.0,88,30.14,10.0,NNW,4.6,-,N/A,,Scattered Clouds,330,2013-09-12 12:17:00
7:52 AM,55.4,50.0,82,30.16,10.0,NNW,6.9,-,N/A,,Mostly Cloudy,330,2013-09-12 12:52:00
7:55 AM,55.0,50.0,83,30.17,10.0,NNW,8.1,-,N/A,,Mostly Cloudy,330,2013-09-12 12:55:00
8:09 AM,55.4,50.0,82,30.16,10.0,NNW,11.5,17.3,N/A,,Mostly Cloudy,330,2013-09-12 13:09:00
8:55 AM,57.0,50.0,77,30.18,10.0,NNW,10.4,16.1,N/A,,Mostly Cloudy,340,2013-09-12 13:55:00
9:55 AM,59.0,46.9,64,30.19,10.0,NNW,10.4,23.0,N/A,,Scattered Clouds,340,2013-09-12 14:55:00
10:01 AM,59.0,46.4,63,30.17,10.0,NNW,13.8,23.0,N/A,,Mostly Cloudy,340,2013-09-12 15:01:00
10:27 AM,60.8,46.4,59,30.18,10.0,NNW,12.7,19.6,N/A,,Scattered Clouds,330,2013-09-12 15:27:00
10:55 AM,61.0,45.0,56,30.20,10.0,North,13.8,23.0,N/A,,Scattered Clouds,360,2013-09-12 15:55:00
11:13 AM,60.8,44.6,55,30.18,10.0,NNW,12.7,-,N/A,,Mostly Cloudy,330,2013-09-12 16:13:00
11:20 AM,62.6,44.6,52,30.18,10.0,NNW,15.0,23.0,N/A,,Scattered Clouds,340,2013-09-12 16:20:00
11:55 AM,63.0,45.0,52,30.20,10.0,NNW,16.1,23.0,N/A,,Scattered Clouds,330,2013-09-12 16:55:00
12:55 PM,63.0,46.0,54,30.21,10.0,NNW,12.7,20.7,N/A,,Mostly Cloudy,330,2013-09-12 17:55:00
1:55 PM,64.9,44.1,47,30.20,10.0,NNW,15.0,25.3,N/A,,Scattered Clouds,340,2013-09-12 18:55:00
2:55 PM,66.0,44.1,45,30.19,10.0,NW,15.0,24.2,N/A,,Scattered Clouds,310,2013-09-12 19:55:00
3:55 PM,66.9,42.1,40,30.19,10.0,North,13.8,26.5,N/A,,Scattered Clouds,350,2013-09-12 20:55:00
4:55 PM,64.9,42.1,43,30.19,10.0,NNW,12.7,20.7,N/A,,Partly Cloudy,340,2013-09-12 21:55:00
5:55 PM,63.0,42.1,46,30.21,10.0,NNW,10.4,-,N/A,,Partly Cloudy,340,2013-09-12 22:55:00
6:55 PM,61.0,41.0,48,30.22,10.0,NNW,5.8,-,N/A,,Clear,340,2013-09-12 23:55:00
7:55 PM,55.9,44.1,64,30.24,10.0,NE,3.5,-,N/A,,Clear,50,2013-09-13 00:55:00
8:55 PM,54.0,42.1,64,30.25,10.0,North,3.5,-,N/A,,Clear,360,2013-09-13 01:55:00
9:55 PM,50.0,42.1,74,30.26,10.0,NE,3.5,-,N/A,,Clear,40,2013-09-13 02:55:00
10:55 PM,46.9,39.9,77,30.27,10.0,Calm,Calm,-,N/A,,Clear,0,2013-09-13 03:55:00
11:55 PM,46.9,41.0,80,30.27,10.0,Calm,Calm,-,N/A,,Clear,0,2013-09-13 04:55:00